Location: GMARS
(34.2910°N, 116.3838°W)
Time: 21:54:43
(UTC-07:00)

Daily predictions for brighter satellites

Satellite Brightness Start Highest point End
(mag) Time Altitude Azimuth Time Altitude Azimuth Time Altitude Azimuth
SL-16 R/B 3.0 20:10:39 10° SW 20:16:12 58° WNW 20:21:46 10° NNE
CZ-2D R/B 3.3 20:13:21 10° SSE 20:17:13 67° ENE 20:21:06 10° N
Cosmos 1743 3.1 20:25:21 10° NNW 20:29:09 67° W 20:32:55 10° S
Cosmos 1892 Rocket 4.3 20:27:16 10° SSW 20:31:38 59° W 20:36:03 10° N
Cosmos 1331 Rocket 4.2 20:27:52 10° NNW 20:33:03 75° WSW 20:38:10 10° S
ISS -2.3 20:33:08 10° WSW 20:36:18 50° NW 20:39:29 10° NE
Aureole 2 Rocket 3.8 20:33:27 10° SW 20:37:15 46° WNW 20:40:44 10° N
Cosmos 1461 3.1 20:33:54 10° NNW 20:38:04 54° ENE 20:41:33 13° SE
Resurs 01 Rocket 4.3 20:35:18 10° SW 20:38:26 19° W 20:41:35 10° NW
Abrixas rocket 2.4 20:35:47 10° NW 20:39:11 71° SW 20:42:02 14° SE
Atlas Centaur 2 2.9 20:33:15 10° WSW 20:39:57 62° S 20:48:02 10° E
Meteor 1-15 Rocket 4.3 20:34:38 10° N 20:40:14 67° E 20:45:53 10° SSE
ALOS 2.6 20:40:40 10° S 20:45:18 69° W 20:49:58 10° NNW
Cosmos 1603 3.7 20:39:57 10° SSW 20:45:33 89° WNW 20:51:11 10° NNE
Cosmos 1302 Rocket 4.0 20:40:30 10° NNW 20:45:46 82° ENE 20:51:01 10° SSE
ATLAS 3B R/B 3.3 20:43:28 10° S 20:50:36 44° ESE 20:57:42 10° NE
FENGYUN 3A 4.0 20:45:39 10° S 20:50:58 68° WSW 20:56:21 10° NNW
GEOS 3 Rocket 3.7 20:48:04 14° SE 20:52:38 67° NE 20:57:49 10° NNW
Meteor 2-9 Rocket 4.3 20:47:33 10° N 20:53:18 87° W 20:59:09 10° S
Cosmos 1939 Rocket 3.5 20:50:39 15° SE 20:53:41 41° ENE 20:57:35 10° N
USA 186 3.1 20:52:25 10° SSW 20:55:00 31° W 20:57:26 10° NNW
ERS-1 Rocket 2.9 20:57:12 10° SSE 21:02:13 90° W 21:07:15 10° NNW
Cosmos 1891 Rocket 4.4 20:56:21 10° N 21:02:29 86° E 21:08:29 10° S
CZ-4 SHROUD 4.3 21:01:32 23° ESE 21:02:37 29° ENE 21:05:23 10° NNE
SPOT 5 3.3 21:02:15 20° SE 21:04:41 36° ENE 21:08:39 10° N
H-2A R/B 4.3 21:02:04 10° SSW 21:05:42 36° W 21:09:23 10° NNW
Cosmos 1943 Rocket 4.4 21:05:32 10° NE 21:06:08 10° NE 21:06:44 10° ENE
Cosmos 1943 3.3 21:01:23 10° S 21:06:52 54° ESE 21:12:23 10° NNE
Cosmos 1346 Rocket 4.0 21:09:56 22° ESE 21:10:25 23° E 21:13:32 10° NE
Cosmos 1602 Rocket 4.2 21:09:10 10° SSW 21:13:34 58° W 21:17:59 10° N
PSLV R/B 3.8 21:13:27 33° ESE 21:14:11 39° ENE 21:17:07 10° N
Envisat 3.1 21:11:37 21° SSE 21:14:59 61° ENE 21:19:59 10° N
Cosmos 1825 Rocket 4.0 21:15:30 25° SSE 21:17:39 43° E 21:21:51 10° NNE
Cosmos 407 Rocket 4.0 21:14:37 19° SSE 21:17:55 40° E 21:22:45 10° NNE
COSMOS 2455 3.4 21:13:33 10° SW 21:19:28 62° WNW 21:25:26 10° NNE
Delta 168 4.2 21:22:53 10° SW 21:25:11 20° S 21:25:11 20° S
Cosmos 1812 Rocket 3.6 21:23:56 10° N 21:28:20 82° W 21:30:58 24° S
Tsikada Rocket 4.5 21:24:14 10° SSW 21:30:35 63° W 21:36:54 10° N
USA 238 DEB 4.3 21:30:15 24° SSE 21:33:20 34° ESE 21:39:32 10° NE
USA 238 4.3 21:30:32 25° SSE 21:33:26 33° ESE 21:39:37 10° NE
CZ-2C R/B 3.6 21:34:58 10° WSW 21:35:42 11° W 21:36:26 10° WNW
H-2A R/B 3.2 21:33:37 15° SSW 21:36:47 40° W 21:40:53 10° NNW
Cosmos 1900 4.3 21:33:33 10° SSW 21:38:40 74° ESE 21:43:48 10° NNE
ARGOS 3.9 21:37:09 30° ESE 21:38:55 38° ENE 21:43:54 10° N
BREEZE-M DEB (TANK) 3.1 21:39:58 10° WNW 21:41:35 31° WSW 21:41:35 31° WSW
Lacrosse 4 Rocket 1.6 21:45:04 10° SSW 21:49:04 67° WNW 21:53:07 10° NNE
MetOp-B 4.0 21:47:41 35° SSE 21:50:00 87° ENE 21:55:23 10° NNW
Milstar 3 Cent rocket 3.9 21:47:38 10° WSW 21:52:01 17° SW 21:53:18 16° SSW
USA 245 4.2 21:51:09 39° SSE 21:53:23 69° ENE 21:58:32 10° N
Cosmos 1992 Rocket 4.0 21:48:28 10° NNW 21:53:42 80° WSW 21:55:34 41° S
Cosmos 2369 Rocket 2.1 21:48:19 10° NNW 21:53:58 72° ENE 21:55:44 44° SE
USA 81 4.0 21:51:09 10° N 21:56:28 89° W 21:58:27 40° S
Cosmos 2142 Rocket 4.4 21:53:13 10° N 21:59:31 84° E 22:02:05 38° S
SeaSat 1 2.3 21:58:17 49° SSE 21:59:38 89° WSW 22:04:36 10° NNW
NOAA 11 4.3 22:02:15 47° ESE 22:03:29 60° ENE 22:08:48 10° N
YAOGAN 6 2.6 22:03:34 80° WSW 22:03:36 80° W 22:07:21 10° NNW
SL-08 RB Rocket 3.9 22:03:34 52° E 22:03:52 53° ENE 22:08:16 10° N
Cosmos 1953 Rocket 3.7 22:03:42 43° SSW 22:05:02 69° W 22:09:28 10° N
Cosmos 1634 Rocket 4.0 22:02:05 10° N 22:08:16 78° W 22:10:54 37° S
Geosat 3.9 22:06:14 10° NNE 22:11:13 60° ESE 22:11:23 60° ESE
Cosmos-2242 3.9 22:11:38 10° N 22:15:08 38° ENE 22:15:08 38° ENE
CZ-4C R/B 3.7 22:17:02 59° NE 22:17:02 59° NE 22:20:40 10° N
H-2A R/B 2.6 22:16:38 39° ENE 22:16:44 39° ENE 22:21:24 10° N
CZ-4B R/B 4.4 22:11:50 10° N 22:16:45 47° WNW 22:20:35 17° SW
Cosmos 2263 4.0 22:19:24 10° NNW 22:25:03 87° WSW 22:25:53 66° SSE
SPOT 1/Viking Rocket 3.9 22:24:35 47° SSW 22:25:41 58° W 22:30:47 10° NNW
CZ-4C R/B 4.2 22:30:35 13° ENE 22:30:35 13° ENE 22:31:28 10° ENE
Cosmos 1140 Rocket 3.5 22:27:53 65° E 22:27:53 65° E 22:32:48 10° NNE
COSMOS 2406 3.1 22:27:47 65° ESE 22:27:53 65° ESE 22:33:33 10° NNE
Cosmos 2279 Rocket 3.9 22:22:51 10° N 22:29:08 87° E 22:30:28 59° S
Atlas Centaur 2 2.9 22:22:04 10° W 22:29:37 65° S 22:31:50 49° SE
Cosmos 1607 3.8 22:29:44 61° SE 22:30:02 62° ESE 22:36:10 10° NE
Landsat 7 3.8 22:32:57 77° NE 22:32:57 77° NE 22:37:31 10° N
Cosmos 1953 3.5 22:32:56 10° N 22:35:30 36° NNE 22:35:30 36° NNE
ATLAS 3B R/B 4.2 22:34:19 10° WSW 22:41:24 39° NW 22:48:24 10° NNE
CARTOSAT-1 4.2 22:42:24 52° NNE 22:42:24 52° NNE 22:45:46 10° N
Spot 4 4.4 22:43:13 49° NE 22:43:13 49° NE 22:47:12 10° N
Terra 2.1 22:49:14 65° N 22:49:14 65° N 22:53:19 10° N
Cosmos 1943 Rocket 2.0 22:45:06 10° NNW 22:50:34 82° NE 22:50:34 82° NE
NOSS 3-2 (A) 4.3 22:52:41 34° ENE 22:52:41 34° ENE 22:56:47 10° NE
Cosmos 614 Rocket 4.5 22:53:13 50° NE 22:53:13 50° NE 22:57:10 10° NNE
DMSP B5D2-2 4.0 22:48:24 10° N 22:53:33 81° NW 22:53:33 81° NW
USA 234 3.1 22:53:50 68° SE 22:54:49 89° NE 23:01:25 10° NW
Cosmos 1656 Rocket 4.3 22:55:56 10° N 23:01:04 46° NE 23:01:04 46° NE
Cosmos 1092 Rocket 4.2 23:31:43 63° W 23:31:51 63° W 23:38:05 10° N
Meteor 2-5 Rocket 4.1 23:36:45 65° NNW 23:36:45 65° NNW 23:41:47 10° N
H-2A R/B 4.1 23:57:16 18° WNW 23:57:16 18° WNW 23:59:44 10° NW
